K5RG-3 Weather Reports


time (UTC)temp
F
wind
direction
speed
knots
gust
knots
rain 1hr
in
rain 24hr
in
rain mn
in
humidity
%
barometer
mb
20260505011529 74 153 0.0 3.5 0.00 0.00 0.00 77 1009.4
20260505010023 74 147 0.0 1.7 0.00 0.00 0.00 76 1009.2
20260505004533 74 274 0.0 4.3 0.00 0.00 0.00 76 1009.1
20260505003021 75 133 0.0 2.6 0.00 0.00 0.00 75 1009.2
20260505001520 75 141 0.0 2.6 0.00 0.00 0.00 74 1009.2
20260505000028 76 141 0.0 1.7 0.00 0.00 0.00 73 1009.3
20260504234519 76 149 0.0 1.7 0.00 0.00 0.00 73 1009.3
20260504233017 77 158 0.9 2.6 0.00 0.00 0.00 72 1009.5
20260504231516 76 163 0.0 3.5 0.00 0.00 0.00 73 1009.7
20260504230018 76 165 0.0 1.7 0.00 0.00 0.00 73 1010.0
20260504224514 77 146 0.0 2.6 0.00 0.00 0.00 72 1009.9
20260504223012 77 125 0.0 1.7 0.00 0.00 0.00 72 1010.1
20260504221517 76 115 0.0 1.7 0.00 0.00 0.00 71 1010.5
20260504220010 77 197 0.0 2.6 0.00 0.00 0.00 71 1010.4
20260504214512 77 148 0.0 1.7 0.00 0.00 0.00 71 1010.6
20260504213026 77 155 0.0 1.7 0.00 0.00 0.00 69 1010.7
20260504211514 78 144 0.9 2.6 0.00 0.00 0.00 70 1010.7
20260504210006 78 289 0.9 2.6 0.00 0.00 0.00 69 1011.0
20260504204504 78 143 0.0 1.7 0.00 0.00 0.00 68 1011.2
20260504203007 79 94 0.0 2.6 0.00 0.00 0.00 67 1011.4
20260504201500 79 148 0.0 3.5 0.00 0.00 0.00 67 1011.4
20260504200059 80 157 0.0 2.6 0.00 0.00 0.00 67 1011.6
20260504194606 79 154 0.0 2.6 0.00 0.00 0.00 66 1011.7
20260504193109 80 155 0.0 1.7 0.00 0.00 0.00 64 1012.1
20260504191554 80 94 0.9 4.3 0.00 0.00 0.00 64 1012.3
20260504190113 79 117 0.0 6.1 0.00 0.00 0.00 65 1012.3
20260504184600 80 131 0.9 3.5 0.00 0.00 0.00 64 1012.3
20260504183050 79 169 1.7 7.0 0.00 0.00 0.00 64 1012.5
20260504181547 79 152 0.9 7.8 0.00 0.00 0.00 67 1012.8
20260504180047 79 136 0.9 3.5 0.00 0.00 0.00 63 1012.8
20260504174545 79 224 0.9 7.0 0.00 0.00 0.00 65 1012.9
20260504173048 78 219 0.9 9.6 0.00 0.00 0.00 65 1013.3
20260504171538 78 153 1.7 4.3 0.00 0.00 0.00 64 1013.4
20260504081514 63 236 0.0 0.0 0.00 0.00 0.00 76 1014.7
20260504060104 65 236 0.0 0.0 0.00 0.00 0.00 72 1016.3
20260504044600 64 236 0.0 0.0 0.00 0.00 0.00 74 1016.8
20260504043050 64 236 0.0 0.0 0.00 0.00 0.00 73 1016.9
20260504041550 64 236 0.0 0.0 0.00 0.00 0.00 72 1016.8
20260504040049 65 236 0.0 0.0 0.00 0.00 0.00 70 1016.8
20260504034554 66 236 0.0 0.0 0.00 0.00 0.00 68 1016.9
20260504033055 67 236 0.0 0.0 0.00 0.00 0.00 67 1016.8
20260504031549 67 236 0.0 0.0 0.00 0.00 0.00 66 1016.7
20260504030047 68 236 0.0 0.0 0.00 0.00 0.00 68 1016.7
20260504024548 68 236 0.0 0.0 0.00 0.00 0.00 65 1016.8
20260504023047 68 236 0.0 0.0 0.00 0.00 0.00 65 1016.7
20260504021546 69 236 0.0 0.0 0.00 0.00 0.00 64 1016.7
20260504020045 69 236 0.0 0.0 0.00 0.00 0.00 62 1016.7
20260504014548 70 236 0.0 0.0 0.00 0.00 0.00 61 1016.6
20260504013049 70 236 0.0 0.0 0.00 0.00 0.00 59 1016.8